Location: Norwich
(52.6280°N, 1.3030°E)
Time: 10:28:10
(UTC+01:00)

Tianhe-1 - Visible Passes

Search period start: 13 May 2021 00:00
Search period end: 23 May 2021 00:00
Orbit: 351 x 385 km, 41.5° (Epoch: 11 May)

Date Brightness Start Highest point End Pass type
(mag) Time Alt. Az. Time Alt. Az. Time Alt. Az.
17 May 3.3 21:46:04 10° S 21:46:49 11° S 21:47:35 10° SSE visible
18 May 3.3 22:16:42 10° SSW 22:17:42 11° S 22:17:47 11° S visible
20 May 3.4 21:43:10 10° SSW 21:43:46 10° S 21:44:24 10° S visible
